,,,PA_Meas_PMT16A,,PR_Meas_QMR101_102,,RH_Meas_QMH101,,SR_Meas_QMS101,,TA_Meas_QMH101,,GenWind,,GenWind,
date,time,status,PA,status,PR,status,RH,status,SR,status,TA,status,DirAvg,status,SpdAvg,
2012-08-14, 07:28:04,VALID,1006.07,VALID,0,VALID,90.8752,VALID,138.158,VALID,25.4928,VALID,71,VALID,0.346094,
2012-08-14, 07:29:04,VALID,1006.05,VALID,0,VALID,90.6235,VALID,140.277,VALID,25.4734,VALID,71,VALID,0.330859,
2012-08-14, 07:30:04,VALID,1006.08,VALID,0,VALID,90.9286,VALID,142.804,VALID,25.5532,VALID,71,VALID,0.114453,
2012-08-14, 07:31:04,VALID,1006.11,VALID,0,VALID,90.7379,VALID,145.819,VALID,25.5921,VALID,71,VALID,0,
2012-08-14, 07:32:04,VALID,1006.1,VALID,0,VALID,90.1886,VALID,149.324,VALID,25.5921,VALID,71,VALID,0.298828,
2012-08-14, 07:33:04,VALID,1006.12,VALID,0,VALID,90.0513,VALID,152.666,VALID,25.5902,VALID,75,VALID,0.279297,
2012-08-14, 07:34:04,VALID,1006.14,VALID,0,VALID,90.5853,VALID,156.171,VALID,25.6895,VALID,75,VALID,0,
2012-08-14, 07:35:04,VALID,1006.14,VALID,0,VALID,90.3183,VALID,160.328,VALID,25.7071,VALID,75,VALID,0,
2012-08-14, 07:36:04,VALID,1006.16,VALID,0,VALID,90.3488,VALID,164.566,VALID,25.7655,VALID,75,VALID,0.162109,
2012-08-14, 07:37:04,VALID,1006.16,VALID,0,VALID,89.4791,VALID,169.539,VALID,25.748,VALID,75,VALID,0.123438,
2012-08-14, 07:38:04,VALID,1006.17,VALID,0,VALID,89.9598,VALID,174.674,VALID,25.8064,VALID,58,VALID,0.156641,
2012-08-14, 07:39:04,VALID,1006.21,VALID,0,VALID,88.7925,VALID,178.994,VALID,25.746,VALID,35,VALID,0.439453,
2012-08-14, 07:40:04,VALID,1006.21,VALID,0,VALID,89.647,VALID,184.618,VALID,25.785,VALID,37,VALID,0.428125,
2012-08-14, 07:41:04,VALID,1006.22,VALID,0,VALID,89.8377,VALID,187.634,VALID,25.8629,VALID,37,VALID,0,
2012-08-14, 07:42:04,VALID,1006.21,VALID,0,VALID,89.1664,VALID,189.264,VALID,25.8648,VALID,37,VALID,0.363281,
2012-08-14, 07:43:04,VALID,1006.24,VALID,0,VALID,89.6241,VALID,191.627,VALID,25.8823,VALID,37,VALID,0.176172,
2012-08-14, 07:44:04,VALID,1006.23,VALID,0,VALID,88.7239,VALID,194.48,VALID,25.9232,VALID,37,VALID,0.346484,
2012-08-14, 07:45:04,VALID,1006.23,VALID,0,VALID,88.5942,VALID,199.86,VALID,25.9213,VALID,37,VALID,0,
2012-08-14, 07:46:04,VALID,1006.23,VALID,0,VALID,88.3195,VALID,203.446,VALID,26.0206,VALID,46,VALID,0,
2012-08-14, 07:47:04,VALID,1006.23,VALID,0,VALID,86.8395,VALID,201.898,VALID,26.0187,VALID,60,VALID,0.380078,
2012-08-14, 07:48:04,VALID,1006.24,VALID,0,VALID,86.5649,VALID,201.898,VALID,26.0791,VALID,58,VALID,0.506641,
2012-08-14, 07:49:04,VALID,1006.26,VALID,0,VALID,86.0385,VALID,201.979,VALID,26.118,VALID,57,VALID,0.454688,
2012-08-14, 07:50:04,VALID,1006.28,VALID,0,VALID,85.4282,VALID,203.12,VALID,26.116,VALID,53,VALID,0.3875,
2012-08-14, 07:51:04,VALID,1006.28,VALID,0,VALID,85.3977,VALID,205.402,VALID,26.2154,VALID,53,VALID,0.525391,
2012-08-14, 07:52:04,VALID,1006.29,VALID,0,VALID,86.0309,VALID,209.885,VALID,26.2719,VALID,50,VALID,0.464063,
2012-08-14, 07:53:04,VALID,1006.33,VALID,0,VALID,85.6418,VALID,215.836,VALID,26.3498,VALID,50,VALID,0.328906,
2012-08-14, 07:54:04,VALID,1006.35,VALID,0,VALID,85.5274,VALID,223.66,VALID,26.4667,VALID,50,VALID,0,
2012-08-14, 07:55:04,VALID,1006.35,VALID,0,VALID,84.467,VALID,235.724,VALID,26.5661,VALID,50,VALID,0.118359,
2012-08-14, 07:56:04,VALID,1006.36,VALID,0,VALID,83.376,VALID,238.414,VALID,26.6245,VALID,61,VALID,0.133594,
2012-08-14, 07:57:04,VALID,1006.4,VALID,0,VALID,81.4383,VALID,240.533,VALID,26.642,VALID,73,VALID,0.492969,
2012-08-14, 07:58:04,VALID,1006.39,VALID,0,VALID,80.6296,VALID,231.078,VALID,26.7609,VALID,78,VALID,0,
2012-08-14, 07:59:04,VALID,1006.4,VALID,0,VALID,81.7511,VALID,224.231,VALID,26.8778,VALID,98,VALID,0.444141,
2012-08-14, 08:00:04,VALID,1006.41,VALID,0,VALID,82.247,VALID,227.817,VALID,26.9752,VALID,36,VALID,0.485156,
2012-08-14, 08:01:04,VALID,1006.43,VALID,0,VALID,82.3538,VALID,235.072,VALID,27.0531,VALID,36,VALID,0.0582031,
2012-08-14, 08:02:04,VALID,1006.45,VALID,0,VALID,76.9449,VALID,236.539,VALID,27.0531,VALID,115,VALID,0.574219,
2012-08-14, 08:03:04,VALID,1006.44,VALID,0,VALID,78.2876,VALID,255.938,VALID,27.0921,VALID,115,VALID,0.0128906,
2012-08-14, 08:04:04,VALID,1006.49,VALID,0,VALID,80.1948,VALID,354.808,VALID,27.289,VALID,115,VALID,0.00429688,
2012-08-14, 08:05:04,VALID,1006.5,VALID,0,VALID,79.1496,VALID,512.528,VALID,27.4018,VALID,115,VALID,0.428125,
2012-08-14, 08:06:04,VALID,1006.49,VALID,0,VALID,80.294,VALID,482.777,VALID,27.5403,VALID,87,VALID,0.460938,
2012-08-14, 08:07:04,VALID,1006.52,VALID,0,VALID,75.8845,VALID,454.901,VALID,27.6182,VALID,82,VALID,1.1043,
2012-08-14, 08:08:04,VALID,1006.53,VALID,0,VALID,76.4414,VALID,563.96,VALID,27.7546,VALID,84,VALID,0.669531,
2012-08-14, 08:09:04,VALID,1006.54,VALID,0,VALID,73.8094,VALID,553.038,VALID,27.8932,VALID,109,VALID,0.993359,
2012-08-14, 08:10:04,VALID,1006.53,VALID,0,VALID,75.1521,VALID,426.781,VALID,27.8542,VALID,119,VALID,0.526563,
2012-08-14, 08:11:04,VALID,1006.53,VALID,0,VALID,74.9538,VALID,435.991,VALID,27.8521,VALID,137,VALID,1.18555,
2012-08-14, 08:12:04,VALID,1006.54,VALID,0,VALID,75.2742,VALID,348.614,VALID,27.8152,VALID,133,VALID,1.02461,
2012-08-14, 08:13:04,VALID,1006.54,VALID,0,VALID,76.1133,VALID,376.571,VALID,27.7157,VALID,27,VALID,0.788281,
2012-08-14, 08:14:04,VALID,1006.54,VALID,0,VALID,76.6474,VALID,420.178,VALID,27.7567,VALID,72,VALID,1.02969,
2012-08-14, 08:15:04,VALID,1006.57,VALID,0,VALID,75.4496,VALID,370.784,VALID,27.7178,VALID,83,VALID,1.09961,
2012-08-14, 08:16:04,VALID,1006.57,VALID,0,VALID,75.0758,VALID,386.597,VALID,27.7372,VALID,78,VALID,0.861328,
2012-08-14, 08:17:04,VALID,1006.56,VALID,0,VALID,73.8247,VALID,485.549,VALID,27.7762,VALID,93,VALID,0.892187,
2012-08-14, 08:18:04,VALID,1006.57,VALID,0,VALID,76.5711,VALID,490.032,VALID,27.7936,VALID,90,VALID,0.812891,
2012-08-14, 08:19:04,VALID,1006.57,VALID,0,VALID,75.2589,VALID,336.387,VALID,27.8737,VALID,81,VALID,0.93125,
2012-08-14, 08:20:04,VALID,1006.59,VALID,0,VALID,75.9455,VALID,318.944,VALID,27.9516,VALID,110,VALID,0.665625,
2012-08-14, 08:21:04,VALID,1006.56,VALID,0,VALID,75.8463,VALID,301.257,VALID,27.9105,VALID,125,VALID,0.914453,
2012-08-14, 08:22:04,VALID,1006.56,VALID,0,VALID,75.0758,VALID,288.134,VALID,27.7546,VALID,114,VALID,1.75898,
2012-08-14, 08:23:04,VALID,1006.58,VALID,0,VALID,75.6327,VALID,300.523,VALID,27.5792,VALID,107,VALID,0.586719,
2012-08-14, 08:24:04,VALID,1006.59,VALID,0,VALID,75.0453,VALID,259.85,VALID,27.6203,VALID,81,VALID,0.937109,
2012-08-14, 08:25:04,VALID,1006.53,VALID,0,VALID,73.7484,VALID,272.24,VALID,27.5208,VALID,94,VALID,0.735547,
2012-08-14, 08:26:04,VALID,1006.54,VALID,0,VALID,75.6022,VALID,255.367,VALID,27.5013,VALID,88,VALID,0.453125,
2012-08-14, 08:27:04,VALID,1006.52,VALID,0,VALID,76.6702,VALID,256.916,VALID,27.5208,VALID,92,VALID,0.651563,
2012-08-14, 08:28:04,VALID,1006.53,VALID,0,VALID,76.8228,VALID,268.735,VALID,27.5403,VALID,102,VALID,1.0832,
2012-08-14, 08:29:04,VALID,1006.52,VALID,0,VALID,77.6773,VALID,267.594,VALID,27.4839,VALID,123,VALID,1.2168,
2012-08-14, 08:30:04,VALID,1006.53,VALID,0,VALID,78.2571,VALID,294.492,VALID,27.3454,VALID,127,VALID,1.47031,
2012-08-14, 08:31:04,VALID,1006.52,VALID,0,VALID,77.1661,VALID,292.209,VALID,27.2869,VALID,135,VALID,1.4668,
2012-08-14, 08:32:04,VALID,1006.53,VALID,0,VALID,76.327,VALID,624.032,VALID,27.2285,VALID,111,VALID,1.3125,
2012-08-14, 08:33:04,VALID,1006.54,VALID,0,VALID,78.7529,VALID,725.755,VALID,27.3259,VALID,162,VALID,1.03437,
2012-08-14, 08:34:04,VALID,1006.54,VALID,0,VALID,77.0593,VALID,387.412,VALID,27.5229,VALID,140,VALID,1.50234,
2012-08-14, 08:35:04,VALID,1006.53,VALID,0,VALID,73.7942,VALID,683.371,VALID,27.4818,VALID,159,VALID,1.80625,
2012-08-14, 08:36:04,VALID,1006.55,VALID,0,VALID,73.1381,VALID,598.438,VALID,27.5013,VALID,137,VALID,1.88906,
2012-08-14, 08:37:04,VALID,1006.52,VALID,0,VALID,75.175,VALID,626.151,VALID,27.5403,VALID,173,VALID,1.37695,
2012-08-14, 08:38:04,VALID,1006.54,VALID,0,VALID,75.8463,VALID,558.336,VALID,27.6983,VALID,170,VALID,1.03359,
2012-08-14, 08:39:04,VALID,1006.52,VALID,0,VALID,73.756,VALID,576.594,VALID,27.6593,VALID,147,VALID,2.8793,
2012-08-14, 08:40:04,VALID,1006.54,VALID,0,VALID,73.3898,VALID,544.48,VALID,27.5598,VALID,146,VALID,1.96211,
2012-08-14, 08:41:04,VALID,1006.52,VALID,0,VALID,76.6779,VALID,581.485,VALID,27.6572,VALID,155,VALID,1.39219,
2012-08-14, 08:42:04,VALID,1006.51,VALID,0,VALID,75.1063,VALID,522.961,VALID,27.7372,VALID,82,VALID,1.375,
2012-08-14, 08:43:04,VALID,1006.48,VALID,0,VALID,75.3886,VALID,500.872,VALID,27.8542,VALID,98,VALID,1.17813,
2012-08-14, 08:44:04,VALID,1006.52,VALID,0,VALID,74.5113,VALID,573.986,VALID,27.9906,VALID,102,VALID,0.397656,
2012-08-14, 08:45:04,VALID,1006.51,VALID,0,VALID,72.337,VALID,636.666,VALID,28.0881,VALID,122,VALID,1.91016,
2012-08-14, 08:46:04,VALID,1006.49,VALID,0,VALID,71.3453,VALID,272.403,VALID,28.0491,VALID,120,VALID,1.48711,
2012-08-14, 08:47:04,VALID,1006.48,VALID,0,VALID,70.0026,VALID,256.672,VALID,27.9105,VALID,145,VALID,1.42344,
2012-08-14, 08:48:04,VALID,1006.47,VALID,0,VALID,73.3746,VALID,391.813,VALID,27.7741,VALID,180,VALID,1.60742,
2012-08-14, 08:49:04,VALID,1006.45,VALID,0,VALID,73.5272,VALID,678.154,VALID,27.7157,VALID,177,VALID,1.38437,
2012-08-14, 08:50:04,VALID,1006.4,VALID,0,VALID,73.222,VALID,260.584,VALID,27.7372,VALID,163,VALID,1.36602,
2012-08-14, 08:51:04,VALID,1006.42,VALID,0,VALID,73.4356,VALID,240.859,VALID,27.7372,VALID,160,VALID,1.56133,
2012-08-14, 08:52:04,VALID,1006.43,VALID,0,VALID,72.7337,VALID,309.652,VALID,27.5813,VALID,154,VALID,2.46094,
2012-08-14, 08:53:04,VALID,1006.38,VALID,0,VALID,74.7401,VALID,751.92,VALID,27.4839,VALID,174,VALID,1.59844,
2012-08-14, 08:54:04,VALID,1006.42,VALID,0,VALID,72.6956,VALID,454.249,VALID,27.4818,VALID,118,VALID,2.46367,
2012-08-14, 08:55:04,VALID,1006.4,VALID,0,VALID,73.3593,VALID,642.861,VALID,27.5403,VALID,158,VALID,1.56328,
2012-08-14, 08:56:04,VALID,1006.42,VALID,0,VALID,73.6187,VALID,707.823,VALID,27.6182,VALID,148,VALID,2.10273,
2012-08-14, 08:57:04,VALID,1006.36,VALID,0,VALID,73.7789,VALID,689.891,VALID,27.5987,VALID,133,VALID,1.94766,
2012-08-14, 08:58:04,VALID,1006.37,VALID,0,VALID,74.8469,VALID,674.894,VALID,27.7178,VALID,151,VALID,1.46289,
2012-08-14, 08:59:04,VALID,1006.37,VALID,0,VALID,72.4438,VALID,583.278,VALID,27.7957,VALID,160,VALID,2.03555,
2012-08-14, 09:00:04,VALID,1006.35,VALID,0,VALID,73.3593,VALID,351.792,VALID,27.7372,VALID,135,VALID,1.6457,
2012-08-14, 09:01:04,VALID,1006.37,VALID,0,VALID,72.7185,VALID,439.904,VALID,27.8521,VALID,125,VALID,2.29141,
2012-08-14, 09:02:04,VALID,1006.37,VALID,0,VALID,72.3828,VALID,165.708,VALID,27.7178,VALID,118,VALID,1.91758,
2012-08-14, 09:03:04,VALID,1006.34,VALID,0,VALID,72.0395,VALID,591.592,VALID,27.5618,VALID,165,VALID,1.93672,
2012-08-14, 09:04:04,VALID,1006.36,VALID,0,VALID,75.2208,VALID,653.049,VALID,27.5813,VALID,135,VALID,1.54688,
2012-08-14, 09:05:04,VALID,1006.36,VALID,0,VALID,75.3657,VALID,651.175,VALID,27.6182,VALID,132,VALID,2.5457,
2012-08-14, 09:06:04,VALID,1006.33,VALID,0,VALID,72.4896,VALID,654.028,VALID,27.6203,VALID,130,VALID,2.55195,
2012-08-14, 09:07:04,VALID,1006.31,VALID,0,VALID,70.4527,VALID,652.805,VALID,27.6983,VALID,126,VALID,2.23945,
2012-08-14, 09:08:04,VALID,1006.3,VALID,0,VALID,74.5799,VALID,649.382,VALID,27.7546,VALID,107,VALID,1.01211,
2012-08-14, 09:09:04,VALID,1006.29,VALID,0,VALID,73.8399,VALID,655.006,VALID,27.93,VALID,153,VALID,2.14727,
2012-08-14, 09:10:04,VALID,1006.3,VALID,0,VALID,71.7267,VALID,659.896,VALID,28.0859,VALID,177,VALID,2.59141,
2012-08-14, 09:11:04,VALID,1006.34,VALID,0,VALID,71.4521,VALID,657.858,VALID,27.9906,VALID,141,VALID,2.57148,
2012-08-14, 09:12:04,VALID,1006.35,VALID,0,VALID,72.2226,VALID,652.805,VALID,27.9321,VALID,160,VALID,1.66211,
2012-08-14, 09:13:04,VALID,1006.36,VALID,0,VALID,71.1088,VALID,613.762,VALID,27.8521,VALID,166,VALID,2.73477,
2012-08-14, 09:14:04,VALID,1006.33,VALID,0,VALID,74.1222,VALID,648.24,VALID,27.8131,VALID,147,VALID,1.45977,
2012-08-14, 09:15:04,VALID,1006.32,VALID,0,VALID,72.3065,VALID,649.3,VALID,27.9495,VALID,188,VALID,2.00938,
2012-08-14, 09:16:04,VALID,1006.35,VALID,0,VALID,72.3523,VALID,650.278,VALID,28.0101,VALID,133,VALID,1.77383,
2012-08-14, 09:17:04,VALID,1006.32,VALID,0,VALID,70.3078,VALID,653.212,VALID,28.0881,VALID,101,VALID,2.48008,
2012-08-14, 09:18:04,VALID,1006.33,VALID,0,VALID,70.2772,VALID,656.065,VALID,28.1076,VALID,114,VALID,2.09609,
2012-08-14, 09:19:04,VALID,1006.36,VALID,0,VALID,70.2849,VALID,659.163,VALID,28.0686,VALID,168,VALID,2.00664,
2012-08-14, 09:20:04,VALID,1006.36,VALID,0,VALID,70.2849,VALID,660.467,VALID,28.0686,VALID,157,VALID,2.03242,
2012-08-14, 09:21:04,VALID,1006.36,VALID,0,VALID,70.3612,VALID,663.646,VALID,27.9906,VALID,162,VALID,2.49688,
2012-08-14, 09:22:04,VALID,1006.32,VALID,0,VALID,69.5601,VALID,667.313,VALID,28.0686,VALID,140,VALID,1.9125,
2012-08-14, 09:23:04,VALID,1006.35,VALID,0,VALID,70.5137,VALID,670.329,VALID,28.1076,VALID,141,VALID,2.39375,
2012-08-14, 09:24:04,VALID,1006.3,VALID,0,VALID,72.6651,VALID,673.345,VALID,28.0686,VALID,131,VALID,1.62266,
2012-08-14, 09:25:04,VALID,1006.27,VALID,0,VALID,71.7344,VALID,674.894,VALID,28.166,VALID,127,VALID,1.71172,
2012-08-14, 09:26:04,VALID,1006.29,VALID,0,VALID,68.2098,VALID,676.768,VALID,28.2635,VALID,141,VALID,1.88437,
2012-08-14, 09:27:04,VALID,1006.27,VALID,0,VALID,68.9193,VALID,679.54,VALID,28.283,VALID,138,VALID,1.65156,
2012-08-14, 09:28:04,VALID,1006.26,VALID,0,VALID,68.576,VALID,685.164,VALID,28.322,VALID,138,VALID,2.16758,
2012-08-14, 09:29:04,VALID,1006.28,VALID,0,VALID,68.164,VALID,689.973,VALID,28.3978,VALID,126,VALID,1.50742,
2012-08-14, 09:30:04,VALID,1006.23,VALID,0,VALID,67.8513,VALID,698.939,VALID,28.4411,VALID,182,VALID,1.91758,
2012-08-14, 09:31:04,VALID,1006.22,VALID,0,VALID,68.0267,VALID,707.253,VALID,28.3025,VALID,168,VALID,1.80664,
2012-08-14, 09:32:04,VALID,1006.23,VALID,0,VALID,68.7515,VALID,689.647,VALID,28.244,VALID,157,VALID,2.23984,
2012-08-14, 09:33:04,VALID,1006.19,VALID,0,VALID,74.8927,VALID,675.138,VALID,28.1855,VALID,133,VALID,1.69922,
2012-08-14, 09:34:04,VALID,1006.22,VALID,0,VALID,70.1552,VALID,601.128,VALID,28.1076,VALID,162,VALID,2.23359,
2012-08-14, 09:35:04,VALID,1006.22,VALID,0,VALID,70.2925,VALID,460.688,VALID,27.9906,VALID,145,VALID,2.32383,
2012-08-14, 09:36:04,VALID,1006.24,VALID,0,VALID,70.4222,VALID,472.426,VALID,28.0491,VALID,132,VALID,1.52578,
2012-08-14, 09:37:04,VALID,1006.2,VALID,0,VALID,71.5665,VALID,292.454,VALID,28.0101,VALID,178,VALID,1.40469,
2012-08-14, 09:38:04,VALID,1006.23,VALID,0,VALID,73.0084,VALID,366.464,VALID,28.0101,VALID,179,VALID,1.75703,
2012-08-14, 09:39:04,VALID,1006.22,VALID,0,VALID,72.955,VALID,307.941,VALID,28.0296,VALID,149,VALID,1.20508,
2012-08-14, 09:40:04,VALID,1006.21,VALID,0,VALID,72.1768,VALID,670.981,VALID,28.0101,VALID,126,VALID,1.43359,
2012-08-14, 09:41:04,VALID,1006.24,VALID,0,VALID,71.2385,VALID,649.708,VALID,28.0296,VALID,139,VALID,1.50977,
2012-08-14, 09:42:04,VALID,1006.22,VALID,0,VALID,71.1088,VALID,700.977,VALID,28.0686,VALID,149,VALID,1.6043,
2012-08-14, 09:43:04,VALID,1006.24,VALID,0,VALID,73.0923,VALID,579.528,VALID,28.1855,VALID,191,VALID,1.57461,
2012-08-14, 09:44:04,VALID,1006.23,VALID,0,VALID,73.2067,VALID,750.127,VALID,28.4411,VALID,137,VALID,1.40469,
2012-08-14, 09:45:04,VALID,1006.27,VALID,0,VALID,70.2696,VALID,771.645,VALID,28.5364,VALID,177,VALID,2.47344,
2012-08-14, 09:46:04,VALID,1006.25,VALID,0,VALID,70.5671,VALID,720.539,VALID,28.4974,VALID,173,VALID,1.80352,
2012-08-14, 09:47:04,VALID,1006.23,VALID,0,VALID,69.8653,VALID,783.953,VALID,28.6945,VALID,114,VALID,1.66836,
2012-08-14, 09:48:04,VALID,1006.24,VALID,0,VALID,70.5366,VALID,780.448,VALID,28.7119,VALID,103,VALID,1.6418,
2012-08-14, 09:49:04,VALID,1006.21,VALID,0,VALID,68.6447,VALID,782.078,VALID,28.8288,VALID,130,VALID,1.84961,
2012-08-14, 09:50:04,VALID,1006.2,VALID,0,VALID,68.7362,VALID,781.67,VALID,28.7898,VALID,175,VALID,1.90625,
2012-08-14, 09:51:04,VALID,1006.21,VALID,0,VALID,72.2836,VALID,778.329,VALID,28.6729,VALID,137,VALID,1.50391,
2012-08-14, 09:52:04,VALID,1006.2,VALID,0,VALID,70.7045,VALID,779.47,VALID,28.8678,VALID,77,VALID,1.15859,
2012-08-14, 09:53:04,VALID,1006.19,VALID,0,VALID,70.2086,VALID,800.744,VALID,28.9848,VALID,108,VALID,2.08906,
2012-08-14, 09:54:04,VALID,1006.17,VALID,0,VALID,67.9276,VALID,790.473,VALID,29.0411,VALID,162,VALID,2.20195,
2012-08-14, 09:55:04,VALID,1006.17,VALID,0,VALID,71.0401,VALID,792.919,VALID,29.0021,VALID,177,VALID,1.95195,
2012-08-14, 09:56:04,VALID,1006.15,VALID,0,VALID,66.6612,VALID,814.6,VALID,29.0238,VALID,189,VALID,3.22109,
2012-08-14, 09:57:04,VALID,1006.15,VALID,0,VALID,69.9339,VALID,822.017,VALID,28.6317,VALID,159,VALID,3.13633,
2012-08-14, 09:58:04,VALID,1006.19,VALID,0,VALID,71.2766,VALID,833.51,VALID,28.5148,VALID,159,VALID,2.61094,
2012-08-14, 09:59:04,VALID,1006.18,VALID,0,VALID,70.9638,VALID,847.774,VALID,28.5169,VALID,128,VALID,1.65586,
2012-08-14, 10:00:04,VALID,1006.16,VALID,0,VALID,70.7273,VALID,467.372,VALID,28.4953,VALID,172,VALID,1.2832,
2012-08-14, 10:01:04,VALID,1006.17,VALID,0,VALID,69.7432,VALID,303.376,VALID,28.5754,VALID,109,VALID,0.739844,
2012-08-14, 10:02:04,VALID,1006.16,VALID,0,VALID,69.4915,VALID,855.681,VALID,28.6512,VALID,146,VALID,1.27539,
2012-08-14, 10:03:04,VALID,1006.16,VALID,0,VALID,72.2302,VALID,835.955,VALID,28.9241,VALID,160,VALID,0.853906,
2012-08-14, 10:04:04,VALID,1006.17,VALID,0,VALID,66.9358,VALID,817.045,VALID,29.0823,VALID,190,VALID,1.7543,
2012-08-14, 10:05:04,VALID,1006.17,VALID,0,VALID,68.7515,VALID,812.562,VALID,29.1018,VALID,165,VALID,0.915234,
2012-08-14, 10:06:04,VALID,1006.19,VALID,0,VALID,70.5519,VALID,813.785,VALID,29.2015,VALID,130,VALID,1.4918,
2012-08-14, 10:07:04,VALID,1006.18,VALID,0,VALID,66.1577,VALID,824.87,VALID,29.2188,VALID,144,VALID,2.05117,
2012-08-14, 10:08:04,VALID,1006.16,VALID,0,VALID,69.1024,VALID,838.319,VALID,29.2383,VALID,140,VALID,1.56875,
2012-08-14, 10:09:04,VALID,1006.16,VALID,0,VALID,69.3999,VALID,638.622,VALID,29.1408,VALID,176,VALID,1.72578,
2012-08-14, 10:10:04,VALID,1006.15,VALID,0,VALID,66.8443,VALID,888.529,VALID,28.9848,VALID,159,VALID,2.025,
2012-08-14, 10:11:04,VALID,1006.18,VALID,0,VALID,71.9175,VALID,912.411,VALID,28.9241,VALID,130,VALID,1.98789,
2012-08-14, 10:12:04,VALID,1006.15,VALID,0,VALID,67.0502,VALID,928.305,VALID,28.9826,VALID,115,VALID,2.48164,
2012-08-14, 10:13:04,VALID,1006.18,VALID,0,VALID,66.6306,VALID,985.117,VALID,28.9046,VALID,130,VALID,2.01797,
2012-08-14, 10:14:04,VALID,1006.13,VALID,0,VALID,70.8113,VALID,923.17,VALID,28.9241,VALID,125,VALID,1.62383,
2012-08-14, 10:15:04,VALID,1006.13,VALID,0,VALID,69.6135,VALID,868.722,VALID,28.9458,VALID,99,VALID,1.92656,
2012-08-14, 10:16:04,VALID,1006.1,VALID,0,VALID,71.6504,VALID,870.841,VALID,28.8678,VALID,141,VALID,1.91953,
2012-08-14, 10:17:04,VALID,1006.11,VALID,0,VALID,72.2302,VALID,855.355,VALID,28.8678,VALID,131,VALID,2.64922,
2012-08-14, 10:18:04,VALID,1006.1,VALID,0,VALID,67.8436,VALID,851.279,VALID,28.7682,VALID,127,VALID,2.3582,
2012-08-14, 10:19:04,VALID,1006.1,VALID,0,VALID,68.9803,VALID,853.48,VALID,28.6144,VALID,120,VALID,1.65547,
2012-08-14, 10:20:04,VALID,1006.07,VALID,0,VALID,67.3172,VALID,756.321,VALID,28.6729,VALID,126,VALID,0.915234,
2012-08-14, 10:21:04,VALID,1006.04,VALID,0,VALID,69.1253,VALID,848.263,VALID,28.8093,VALID,142,VALID,2.32656,
2012-08-14, 10:22:04,VALID,1006.04,VALID,0,VALID,68.9269,VALID,848.915,VALID,28.8267,VALID,146,VALID,2.36172,
2012-08-14, 10:23:04,VALID,1005.96,VALID,0,VALID,71.7115,VALID,851.279,VALID,28.8288,VALID,189,VALID,1.41641,
2012-08-14, 10:24:04,VALID,1005.97,VALID,0,VALID,70.2391,VALID,861.223,VALID,28.8288,VALID,139,VALID,1.65703,
2012-08-14, 10:25:04,VALID,1005.95,VALID,0,VALID,71.0325,VALID,898.065,VALID,28.9848,VALID,187,VALID,1.62266,
2012-08-14, 10:26:04,VALID,1005.92,VALID,0,VALID,70.7502,VALID,875.324,VALID,28.8288,VALID,157,VALID,2.35039,
2012-08-14, 10:27:04,VALID,1005.9,VALID,0,VALID,71.1469,VALID,866.195,VALID,28.7119,VALID,131,VALID,2.39648,
2012-08-14, 10:28:04,VALID,1005.89,VALID,0,VALID,69.2626,VALID,880.133,VALID,28.8093,VALID,169,VALID,3.33672,
2012-08-14, 10:29:04,VALID,1005.91,VALID,0,VALID,72.9016,VALID,829.598,VALID,28.7509,VALID,178,VALID,2.0625,
2012-08-14, 10:30:04,VALID,1005.92,VALID,0,VALID,72.7643,VALID,886.246,VALID,28.7877,VALID,159,VALID,2.18828,
2012-08-14, 10:31:04,VALID,1005.91,VALID,0,VALID,69.0108,VALID,906.787,VALID,28.8483,VALID,177,VALID,2.53594,
2012-08-14, 10:32:04,VALID,1005.92,VALID,0,VALID,71.4292,VALID,907.846,VALID,28.8483,VALID,178,VALID,1.88359,
2012-08-14, 10:33:04,VALID,1005.91,VALID,0,VALID,67.5308,VALID,823.24,VALID,28.987,VALID,133,VALID,2.51055,
2012-08-14, 10:34:04,VALID,1005.93,VALID,0,VALID,67.5308,VALID,930.017,VALID,28.8873,VALID,122,VALID,1.15195,
2012-08-14, 10:35:04,VALID,1005.91,VALID,0,VALID,69.255,VALID,465.986,VALID,28.9458,VALID,187,VALID,1.50547,
2012-08-14, 10:36:04,VALID,1005.87,VALID,0,VALID,73.1304,VALID,357.824,VALID,28.9263,VALID,160,VALID,1.1625,
2012-08-14, 10:37:04,VALID,1005.92,VALID,0,VALID,69.5449,VALID,149.324,VALID,28.7898,VALID,162,VALID,2.50742,
2012-08-14, 10:38:04,VALID,1005.91,VALID,0,VALID,70.8342,VALID,267.105,VALID,28.6166,VALID,141,VALID,1.31641,
2012-08-14, 10:39:04,VALID,1005.9,VALID,0,VALID,70.0255,VALID,743.769,VALID,28.5754,VALID,293,VALID,0.732031,
2012-08-14, 10:40:04,VALID,1005.86,VALID,0,VALID,70.9028,VALID,318.863,VALID,28.5754,VALID,165,VALID,1.13828,
2012-08-14, 10:41:04,VALID,1005.83,VALID,0,VALID,71.1164,VALID,422.542,VALID,28.5949,VALID,222,VALID,1.77578,
2012-08-14, 10:42:04,VALID,1005.81,VALID,0,VALID,72.688,VALID,361.492,VALID,28.7314,VALID,164,VALID,1.26133,
2012-08-14, 10:43:04,VALID,1005.82,VALID,0,VALID,71.7191,VALID,1016.5,VALID,28.8093,VALID,188,VALID,2.15703,
2012-08-14, 10:44:04,VALID,1005.81,VALID,0,VALID,72.0929,VALID,887.877,VALID,28.8483,VALID,203,VALID,1.96172,
2012-08-14, 10:45:04,VALID,1005.82,VALID,0,VALID,70.201,VALID,938.412,VALID,29.0628,VALID,122,VALID,2.14727,
2012-08-14, 10:46:04,VALID,1005.78,VALID,0,VALID,69.1863,VALID,928.142,VALID,28.9263,VALID,117,VALID,2.75391,
2012-08-14, 10:47:04,VALID,1005.77,VALID,0,VALID,68.6599,VALID,925.615,VALID,28.9263,VALID,178,VALID,1.92773,
2012-08-14, 10:48:04,VALID,1005.75,VALID,0,VALID,70.735,VALID,938.412,VALID,29.0433,VALID,176,VALID,1.79375,
2012-08-14, 10:49:04,VALID,1005.75,VALID,0,VALID,72.8253,VALID,990.741,VALID,29.0823,VALID,171,VALID,2.44844,
2012-08-14, 10:50:04,VALID,1005.7,VALID,0,VALID,70.9562,VALID,223.416,VALID,28.8851,VALID,176,VALID,2.09609,
2012-08-14, 10:51:04,VALID,1005.71,VALID,0,VALID,70.8952,VALID,957.648,VALID,28.7119,VALID,176,VALID,2.50625,
2012-08-14, 10:52:04,VALID,1005.71,VALID,0,VALID,72.5201,VALID,906.379,VALID,28.6924,VALID,157,VALID,2.42656,
2012-08-14, 10:53:04,VALID,1005.69,VALID,0,VALID,71.9327,VALID,896.517,VALID,28.6924,VALID,163,VALID,1.5082,
2012-08-14, 10:54:04,VALID,1005.65,VALID,0,VALID,72.0395,VALID,904.26,VALID,28.6317,VALID,159,VALID,2.12031,
2012-08-14, 10:55:04,VALID,1005.65,VALID,0,VALID,73.756,VALID,911.351,VALID,28.8873,VALID,183,VALID,1.81523,
2012-08-14, 10:56:04,VALID,1005.62,VALID,0,VALID,68.6981,VALID,914.612,VALID,29.0823,VALID,189,VALID,2.67422,
2012-08-14, 10:57:04,VALID,1005.6,VALID,0,VALID,69.9416,VALID,915.508,VALID,29.0238,VALID,196,VALID,2.22187,
2012-08-14, 10:58:04,VALID,1005.57,VALID,0,VALID,71.4597,VALID,931.81,VALID,29.1018,VALID,190,VALID,2.23867,
2012-08-14, 10:59:04,VALID,1005.56,VALID,0,VALID,71.9785,VALID,910.373,VALID,29.1603,VALID,187,VALID,1.60859,
2012-08-14, 11:00:04,VALID,1005.56,VALID,0,VALID,68.4005,VALID,905.89,VALID,29.3748,VALID,126,VALID,2.69766,
2012-08-14, 11:01:04,VALID,1005.56,VALID,0,VALID,71.2003,VALID,913.144,VALID,29.2773,VALID,139,VALID,3.29609,
2012-08-14, 11:02:04,VALID,1005.56,VALID,0,VALID,69.2626,VALID,934.418,VALID,29.1018,VALID,175,VALID,1.97969,